sat.trackr.live / text

‹ back to catalog

STARLINK-32485

NORAD 62143 · 2024-224E

PAYLOAD ACTIVE UNKNOWN

§ Identity

Operator
Country
US
Launch date
2024-11-30
Launch site
AFETR
Launch vehicle
Mass (kg)
RCS (m²)

Purposes: comms

External: N2YO · Heavens-Above · Gunter

§ Orbital elements

Epoch: 2026-05-25T04:39:29.390688Z

Period
94.27 min
Inclination
42.9985°
Eccentricity
0.0001015
Mean motion
15.27588264 rev/d
Perigee alt
482.3 km
Apogee alt
483.7 km
Semi-major
6,861.2 km
B*
6.2956e-4
RAAN
89.2263°
Arg perigee
267.4507°
Mean anomaly
92.6228°
Rev number
8,371

§ Raw data

STARLINK-324851 62143U 24224E   26145.19409017  .00017107  00000+0  62956-3 0  99952 62143  42.9985  89.2263 0001015 267.4507  92.6228 15.27588264 83719

JSON: /api/v1/satellites/62143 · /tle

For live sub-satellite position, see the globe view (requires WebGL).

§ Visibility from observer

Set your observer location to see the next 7 days of passes ≥ 10°. The values pass through the URL so the page stays shareable.

No JS? Fill the form by hand. The geolocation button needs JavaScript.